When you browse on this site, cookies collect data to enhance your experience and personalize the content and advertising you see.
Visit our Privacy Policy to learn more. By continuing to use the site, you agree to this use of cookies and data.
  • In Slovakia
  • List of Countries
  • For 7 days
  • Water Temperature
  • Weather Map
  • Weather Widgets
  • user-avatar
    Login

    Hourly Weather Etchmiadzin

    Today, 19 August, Monday

    Time Temperature Precipitation Wind Pressure Humidity
    00:00 +27°C° 0 mm 3 mps 686 mmHg 35%
    01:00 +26°C° 0 mm 3 mps 686 mmHg 37%
    02:00 +25°C° 0 mm 2 mps 686 mmHg 38%
    03:00 +25°C° 0 mm 2 mps 686 mmHg 42%
    04:00 +25°C° 0 mm 2 mps 686 mmHg 41%
    05:00 +25°C° 0 mm 2 mps 686 mmHg 40%
    06:00 +25°C° 0 mm 2 mps 687 mmHg 39%
    07:00 +27°C° 0 mm 2 mps 687 mmHg 34%
    08:00 +30°C° 0 mm 2 mps 688 mmHg 29%
    09:00 +33°C° 0 mm 1 mps 688 mmHg 24%
    10:00 +36°C° 0 mm 2 mps 688 mmHg 21%
    11:00 +38°C° 0 mm 2 mps 688 mmHg 18%
    12:00 +40°C° 0 mm 3 mps 688 mmHg 15%
    13:00 +40°C° 0 mm 3 mps 689 mmHg 15%
    14:00 +42°C° 0 mm 4 mps 689 mmHg 14%
    15:00 +43°C° 0 mm 4 mps 689 mmHg 13%
    16:00 +41°C° 0 mm 4 mps 689 mmHg 16%
    17:00 +40°C° 0 mm 4 mps 689 mmHg 19%
    18:00 +37°C° 0 mm 5 mps 689 mmHg 22%
    19:00 +35°C° 0 mm 4 mps 689 mmHg 26%
    20:00 +33°C° 0 mm 4 mps 689 mmHg 30%
    21:00 +30°C° 0 mm 4 mps 689 mmHg 34%
    22:00 +29°C° 0 mm 3 mps 689 mmHg 34%
    23:00 +28°C° 0 mm 3 mps 689 mmHg 35%

    Tomorrow, 20 August, Tuesday

    Time Temperature Precipitation Wind Pressure Humidity
    00:00 +27°C° 0 mm 2 mps 689 mmHg 36%
    01:00 +26°C° 0 mm 2 mps 689 mmHg 36%
    02:00 +25°C° 0 mm 2 mps 689 mmHg 36%
    03:00 +24°C° 0 mm 2 mps 689 mmHg 37%
    04:00 +24°C° 0 mm 2 mps 689 mmHg 36%
    05:00 +24°C° 0 mm 1 mps 689 mmHg 36%
    06:00 +24°C° 0 mm 1 mps 689 mmHg 35%
    07:00 +27°C° 0 mm 1 mps 689 mmHg 30%
    08:00 +29°C° 0 mm 2 mps 690 mmHg 25%
    09:00 +32°C° 0 mm 2 mps 690 mmHg 20%
    10:00 +35°C° 0 mm 2 mps 690 mmHg 18%
    11:00 +37°C° 0 mm 2 mps 690 mmHg 16%
    12:00 +39°C° 0 mm 3 mps 690 mmHg 13%
    13:00 +40°C° 0 mm 3 mps 690 mmHg 12%
    14:00 +42°C° 0 mm 4 mps 690 mmHg 11%
    15:00 +43°C° 0 mm 5 mps 689 mmHg 9%
    16:00 +42°C° 0 mm 6 mps 689 mmHg 12%
    17:00 +40°C° 0 mm 6 mps 689 mmHg 15%
    18:00 +39°C° 0 mm 6 mps 689 mmHg 18%
    19:00 +35°C° 0 mm 6 mps 689 mmHg 21%
    20:00 +33°C° 0 mm 5 mps 689 mmHg 25%
    21:00 +29°C° 0 mm 4 mps 689 mmHg 29%
    22:00 +27°C° 0 mm 3 mps 688 mmHg 31%
    23:00 +26°C° 0 mm 3 mps 688 mmHg 33%

    Day after tomorrow, 21 August, Wednesday

    Time Temperature Precipitation Wind Pressure Humidity
    00:00 +24°C° 0 mm 2 mps 688 mmHg 35%
    01:00 +24°C° 0 mm 2 mps 688 mmHg 35%
    02:00 +23°C° 0 mm 2 mps 688 mmHg 35%
    03:00 +23°C° 0 mm 2 mps 688 mmHg 35%
    04:00 +23°C° 0 mm 2 mps 688 mmHg 34%
    05:00 +23°C° 0 mm 1 mps 688 mmHg 33%
    06:00 +23°C° 0 mm 1 mps 688 mmHg 32%
    07:00 +26°C° 0 mm 1 mps 688 mmHg 27%
    08:00 +29°C° 0 mm 1 mps 689 mmHg 23%
    09:00 +32°C° 0 mm 2 mps 689 mmHg 18%
    10:00 +35°C° 0 mm 2 mps 689 mmHg 16%
    11:00 +36°C° 0 mm 2 mps 689 mmHg 14%
    12:00 +38°C° 0 mm 3 mps 689 mmHg 13%
    13:00 +40°C° 0 mm 4 mps 688 mmHg 12%
    14:00 +42°C° 0 mm 4 mps 688 mmHg 11%
    15:00 +43°C° 0 mm 5 mps 688 mmHg 10%
    16:00 +41°C° 0 mm 5 mps 687 mmHg 12%
    17:00 +40°C° 0 mm 6 mps 687 mmHg 14%
    18:00 +39°C° 0 mm 6 mps 687 mmHg 17%
    19:00 +35°C° 0 mm 5 mps 687 mmHg 20%
    20:00 +33°C° 0 mm 5 mps 687 mmHg 24%
    21:00 +29°C° 0 mm 4 mps 687 mmHg 28%
    22:00 +28°C° 0 mm 3 mps 686 mmHg 30%
    23:00 +26°C° 0 mm 3 mps 686 mmHg 32%

    22 August, Thursday

    Time Temperature Precipitation Wind Pressure Humidity
    00:00 +25°C° 0 mm 2 mps 686 mmHg 34%
    01:00 +24°C° 0 mm 2 mps 686 mmHg 34%
    02:00 +23°C° 0 mm 2 mps 685 mmHg 35%
    03:00 +23°C° 0 mm 2 mps 685 mmHg 35%
    04:00 +23°C° 0 mm 2 mps 685 mmHg 35%
    05:00 +23°C° 0 mm 2 mps 685 mmHg 34%
    06:00 +23°C° 0 mm 1 mps 685 mmHg 33%
    07:00 +26°C° 0 mm 1 mps 686 mmHg 28%
    08:00 +29°C° 0 mm 1 mps 686 mmHg 23%
    09:00 +31°C° 0 mm 1 mps 686 mmHg 18%
    10:00 +35°C° 0 mm 2 mps 686 mmHg 16%
    11:00 +37°C° 0 mm 3 mps 686 mmHg 13%
    12:00 +40°C° 0 mm 4 mps 686 mmHg 10%
    13:00 +40°C° 0 mm 4 mps 685 mmHg 10%
    14:00 +41°C° 0 mm 5 mps 685 mmHg 9%
    15:00 +42°C° 0 mm 5 mps 685 mmHg 9%
    16:00 +41°C° 0 mm 6 mps 685 mmHg 12%
    17:00 +39°C° 0 mm 6 mps 684 mmHg 15%
    18:00 +36°C° 0 mm 7 mps 684 mmHg 19%
    19:00 +33°C° 0 mm 6 mps 684 mmHg 23%
    20:00 +29°C° 0 mm 4 mps 684 mmHg 28%
    21:00 +26°C° 0 mm 3 mps 685 mmHg 32%
    22:00 +25°C° 0 mm 3 mps 685 mmHg 33%
    23:00 +24°C° 0 mm 3 mps 685 mmHg 34%

    23 August, Friday

    Time Temperature Precipitation Wind Pressure Humidity
    00:00 +22°C° 0 mm 3 mps 685 mmHg 34%
    01:00 +23°C° 0 mm 2 mps 685 mmHg 35%
    02:00 +21°C° 0 mm 2 mps 684 mmHg 36%
    03:00 +20°C° 0 mm 2 mps 684 mmHg 37%
    04:00 +20°C° 0 mm 2 mps 685 mmHg 37%
    05:00 +21°C° 0 mm 1 mps 685 mmHg 36%
    06:00 +21°C° 0 mm 1 mps 685 mmHg 36%
    07:00 +24°C° 0 mm 1 mps 685 mmHg 31%
    08:00 +27°C° 0 mm 1 mps 686 mmHg 25%
    09:00 +30°C° 0 mm 1 mps 686 mmHg 20%
    10:00 +32°C° 0 mm 2 mps 686 mmHg 18%
    11:00 +35°C° 0 mm 2 mps 686 mmHg 16%
    12:00 +37°C° 0 mm 2 mps 686 mmHg 14%
    13:00 +37°C° 0 mm 2 mps 686 mmHg 12%
    14:00 +38°C° 0 mm 3 mps 686 mmHg 11%
    15:00 +39°C° 0 mm 3 mps 686 mmHg 10%
    16:00 +37°C° 0 mm 4 mps 686 mmHg 14%
    17:00 +36°C° 0 mm 6 mps 685 mmHg 18%
    18:00 +34°C° 0 mm 7 mps 685 mmHg 22%
    19:00 +32°C° 0 mm 6 mps 685 mmHg 27%
    20:00 +28°C° 0 mm 5 mps 685 mmHg 31%
    21:00 +26°C° 0 mm 3 mps 685 mmHg 36%
    22:00 +25°C° 0 mm 3 mps 685 mmHg 38%
    23:00 +24°C° 0 mm 2 mps 685 mmHg 39%

    24 August, Saturday

    Time Temperature Precipitation Wind Pressure Humidity
    00:00 +23°C° 0 mm 2 mps 685 mmHg 41%
    01:00 +23°C° 0 mm 2 mps 685 mmHg 42%
    02:00 +21°C° 0 mm 2 mps 685 mmHg 43%
    03:00 +21°C° 0 mm 1 mps 685 mmHg 44%
    04:00 +22°C° 0 mm 1 mps 685 mmHg 44%
    05:00 +22°C° 0 mm 1 mps 686 mmHg 43%
    06:00 +22°C° 0 mm 1 mps 686 mmHg 43%
    07:00 +25°C° 0 mm 1 mps 686 mmHg 37%
    08:00 +27°C° 0 mm 2 mps 687 mmHg 31%
    09:00 +30°C° 0 mm 2 mps 687 mmHg 25%
    10:00 +32°C° 0 mm 2 mps 687 mmHg 22%
    11:00 +35°C° 0 mm 2 mps 687 mmHg 20%
    12:00 +37°C° 0 mm 2 mps 687 mmHg 17%
    13:00 +37°C° 0 mm 2 mps 687 mmHg 16%
    14:00 +38°C° 0 mm 2 mps 687 mmHg 14%
    15:00 +39°C° 0 mm 2 mps 686 mmHg 13%
    16:00 +38°C° 0 mm 2 mps 686 mmHg 15%
    17:00 +37°C° 0 mm 3 mps 686 mmHg 18%
    18:00 +36°C° 0 mm 4 mps 686 mmHg 21%
    19:00 +33°C° 0 mm 4 mps 686 mmHg 26%
    20:00 +30°C° 0 mm 4 mps 686 mmHg 32%
    21:00 +27°C° 0 mm 4 mps 686 mmHg 38%
    22:00 +26°C° 0 mm 3 mps 686 mmHg 40%
    23:00 +25°C° 0 mm 3 mps 687 mmHg 42%
    Show more